Home   Weather   Venice   Past weeks

Flag for Italy Past Weather in Venice, Italy — Yesterday and Last 2 Weeks

Now
28 °F

Clear.


Feels Like: 28 °F
Forecast: 35 / 44 °F
Wind: 1 mph from North

Location: Treviso / S. Angelo

Current Time: Jan 24, 2017 at 8:11:51 am

Latest Report: Jan 24, 2017 at 7:20 am


Visibility: 10 mi

Pressure: 30.07 "Hg

Humidity: 86%

Dew Point: 25 °F

Location of VeniceLocation

Past Weather in Venice — Graph

°F

Venice Temperature Yesterday

Maximum temperature yesterday: 46 °F (at 2:50 pm)
Minimum temperature yesterday: 30 °F (at 2:20 am)
Average temperature yesterday: 37 °F

High & Low Weather Summary for the Past Weeks

 TemperatureHumidityPressure
High52 °F (Jan 22, 3:20 pm)100% (Jan 12, 9:50 pm)30.51 "Hg (Jan 12, 9:50 pm)
Low19 °F (Jan 9, 6:50 am)25% (Jan 17, 11:20 am)29.42 "Hg (Jan 13, 12:50 pm)
Average35 °F62%30.13 "Hg
* Reported Jan 9 6:20 am — Jan 24 6:50 am, Venice, Weather by CustomWeather, © 2017

Note: Actual official high and low records may vary slightly from our data, if they occured in-between our weather recording intervals... More about our weather records

Advertising

Venice Weather History for the Previous 24 Hours

Scroll right to see more
 ConditionsComfort  
Time TempWeatherWind HumidityBarometerVisibility
6:50 am
Tue, Jan 24
27 °FChilly.1 mph93%30.07 "HgN/A
6:20 am28 °FChilly.2 mph86%30.04 "HgN/A
5:50 am28 °FChilly.1 mph86%30.04 "Hg6 mi
5:20 am28 °FChilly.1 mph86%30.04 "Hg6 mi
4:50 am28 °FChilly.1 mph93%30.07 "Hg5 mi
4:20 am28 °FChilly.1 mph86%30.07 "Hg6 mi
3:50 am27 °FChilly.1 mph93%30.07 "Hg4 mi
3:20 am30 °FChilly.2 mph80%30.07 "HgN/A
2:50 am30 °FChilly.1 mph80%30.07 "Hg6 mi
2:20 am30 °FChilly.3 mph86%30.07 "Hg5 mi
1:50 am30 °FChilly.2 mph86%30.07 "Hg4 mi
1:20 am30 °FChilly.2 mph86%30.07 "Hg4 mi
12:50 am30 °FChilly.3 mph86%30.09 "Hg4 mi
12:20 am32 °FChilly.2 mph80%30.09 "Hg4 mi
11:50 pm
Mon, Jan 23
30 °FChilly.1 mph86%30.09 "Hg4 mi
11:20 pm32 °FChilly.2 mph87%30.09 "Hg4 mi
10:50 pm32 °FClear.1 mph80%30.09 "Hg10 mi
10:20 pm34 °FClear.1 mph75%30.12 "Hg10 mi
9:50 pm34 °FClear.1 mph75%30.12 "Hg10 mi
9:20 pm34 °FPassing clouds.2 mph75%30.12 "HgN/A
8:50 pm36 °FPassing clouds.2 mph75%30.12 "HgN/A
8:20 pm34 °FPassing clouds.1 mph81%30.12 "HgN/A
7:50 pm36 °FClear.2 mph70%30.12 "Hg10 mi
7:20 pm37 °FClear.2 mph65%30.12 "Hg10 mi
6:50 pm39 °FClear.5 mph61%30.12 "Hg10 mi
6:20 pm39 °FPassing clouds.1 mph61%30.12 "HgN/A
5:50 pm41 °FPassing clouds.2 mph61%30.12 "HgN/A
5:20 pm43 °FPassing clouds.2 mph53%30.12 "HgN/A
4:50 pm45 °FSunny.3 mph49%30.12 "Hg10 mi
4:20 pm46 °FSunny.1 mph46%30.12 "Hg10 mi
3:50 pm46 °FSunny.2 mph46%30.12 "Hg10 mi
3:20 pm46 °FSunny.1 mph46%30.12 "Hg10 mi
2:50 pm46 °FPassing clouds.3 mph46%30.15 "HgN/A
2:20 pm45 °FSunny.1 mph49%30.15 "Hg10 mi
1:50 pm45 °FSunny.1 mph49%30.15 "Hg10 mi
12:50 pm43 °FSunny.2 mph49%30.18 "Hg10 mi
12:20 pm43 °FPassing clouds.3 mph53%30.21 "HgN/A
11:50 am41 °FSunny.2 mph70%30.21 "Hg10 mi
11:20 am41 °FPartly sunny.1 mph57%30.21 "HgN/A
10:50 am37 °FPartly sunny.2 mph65%30.21 "HgN/A
10:20 am37 °FSunny.2 mph65%30.24 "Hg10 mi
9:50 am37 °FPartly sunny.2 mph65%30.24 "HgN/A
9:20 am36 °FPartly sunny.1 mph70%30.24 "HgN/A
8:50 am34 °FPartly sunny.2 mph75%30.24 "HgN/A
8:20 am34 °FPartly sunny.1 mph70%30.24 "HgN/A
Weather by CustomWeather, © 2017

See weather overviewHow to use our weather pages